Back to catalog

STARLINK-30168

AliveCommunicationsVLEO
NORAD 57513·PAYLOAD·🇺🇸 United States

Launched Aug 7, 2023 from Cape Canaveral Space Force Station

Loading…

Next Passes (next 24 hours)

TLE

FreshSource: CelesTrak SupGP

Epoch: Sep 14, 2026, 20:58 UTC

1 57513C 23113U   26257.87409722  .00052231  00000+0  18919-2 0  2571
2 57513  43.0042  27.3620 0001747 275.3390  12.8638 15.27551146    10

Track STARLINK-30168 in real time with AllMySat

Download on the App Store